Time,TemperatureF,DewpointF,PressureIn,WindDirection,WindDirectionDegrees,WindSpeedMPH,WindSpeedGustMPH,Humidity,HourlyPrecipIn,Conditions,Clouds,dailyrainin,SoftwareType,DateUTC
2013-01-09 00:01:00,31.1,24.1,30.39,WSW,248,0.0,0.0,75,0.00,,,0.00,VWS V14.01,2013-01-09 05:01:00,
2013-01-09 00:04:00,31.1,24.4,30.39,West,270,0.0,0.0,76,0.00,,,0.00,VWS V14.01,2013-01-09 05:04:00,
2013-01-09 00:09:00,31.5,25.1,30.39,West,270,0.0,0.0,77,0.00,,,0.00,VWS V14.01,2013-01-09 05:09:00,
2013-01-09 00:14:00,31.5,25.1,30.39,West,270,0.0,0.0,77,0.00,,,0.00,VWS V14.01,2013-01-09 05:14:00,
2013-01-09 00:19:00,31.6,25.3,30.39,West,270,0.0,0.0,77,0.00,,,0.00,VWS V14.01,2013-01-09 05:19:00,
2013-01-09 00:24:00,31.5,25.1,30.39,West,270,0.0,0.0,77,0.00,,,0.00,VWS V14.01,2013-01-09 05:24:00,
2013-01-09 00:29:00,31.8,25.4,30.39,WSW,248,3.1,4.0,77,0.00,,,0.00,VWS V14.01,2013-01-09 05:29:00,
2013-01-09 00:34:00,31.6,25.3,30.39,West,270,0.0,0.0,77,0.00,,,0.00,VWS V14.01,2013-01-09 05:34:00,
2013-01-09 00:39:00,31.5,25.1,30.39,West,270,0.0,1.8,77,0.00,,,0.00,VWS V14.01,2013-01-09 05:39:00,
2013-01-09 00:44:00,31.3,24.9,30.39,West,270,0.0,0.0,77,0.00,,,0.00,VWS V14.01,2013-01-09 05:44:00,
2013-01-09 00:49:00,31.5,25.1,30.39,West,270,0.0,0.0,77,0.00,,,0.00,VWS V14.01,2013-01-09 05:49:00,
2013-01-09 00:54:00,31.5,25.1,30.39,West,270,0.0,0.0,77,0.00,,,0.00,VWS V14.01,2013-01-09 05:54:00,
2013-01-09 00:59:00,31.5,25.1,30.39,West,270,0.0,0.0,77,0.00,,,0.00,VWS V14.01,2013-01-09 05:59:00,
2013-01-09 01:04:00,31.5,25.1,30.39,West,270,0.0,2.7,77,0.00,,,0.00,VWS V14.01,2013-01-09 06:04:00,
2013-01-09 01:09:00,31.3,24.9,30.39,West,270,0.0,0.0,77,0.00,,,0.00,VWS V14.01,2013-01-09 06:09:00,
2013-01-09 01:14:00,31.3,24.9,30.39,West,270,0.0,0.0,77,0.00,,,0.00,VWS V14.01,2013-01-09 06:14:00,
2013-01-09 01:19:00,31.1,24.8,30.39,West,270,0.0,0.0,77,0.00,,,0.00,VWS V14.01,2013-01-09 06:19:00,
2013-01-09 01:25:00,30.9,24.6,30.39,West,270,1.8,2.2,77,0.00,,,0.00,VWS V14.01,2013-01-09 06:25:00,
2013-01-09 01:30:00,30.7,24.4,30.39,West,270,0.0,0.0,77,0.00,,,0.00,VWS V14.01,2013-01-09 06:30:00,
2013-01-09 01:35:00,30.6,24.2,30.39,West,270,0.0,0.0,77,0.00,,,0.00,VWS V14.01,2013-01-09 06:35:00,
2013-01-09 01:40:00,30.6,24.2,30.39,WSW,248,3.1,3.1,77,0.00,,,0.00,VWS V14.01,2013-01-09 06:40:00,
2013-01-09 01:45:00,30.6,24.5,30.39,West,270,0.0,0.0,78,0.00,,,0.00,VWS V14.01,2013-01-09 06:45:00,
2013-01-09 01:50:00,30.4,24.4,30.39,West,270,0.0,0.0,78,0.00,,,0.00,VWS V14.01,2013-01-09 06:50:00,
2013-01-09 01:55:00,30.6,24.8,30.39,WSW,248,1.8,2.2,79,0.00,,,0.00,VWS V14.01,2013-01-09 06:55:00,
2013-01-09 02:00:00,30.6,24.8,30.39,SW,225,0.0,0.0,79,0.00,,,0.00,VWS V14.01,2013-01-09 07:00:00,
2013-01-09 02:05:00,30.6,24.8,30.39,WSW,248,3.1,3.1,79,0.00,,,0.00,VWS V14.01,2013-01-09 07:05:00,
2013-01-09 02:10:00,30.7,25.3,30.39,SW,225,4.0,4.5,80,0.00,,,0.00,VWS V14.01,2013-01-09 07:10:00,
2013-01-09 02:15:00,30.6,24.8,30.39,WSW,248,0.0,2.2,79,0.00,,,0.00,VWS V14.01,2013-01-09 07:15:00,
2013-01-09 02:20:00,30.2,24.5,30.39,WNW,292,0.0,0.0,79,0.00,,,0.00,VWS V14.01,2013-01-09 07:20:00,
2013-01-09 02:25:00,30.2,24.5,30.39,West,270,0.0,2.7,79,0.00,,,0.00,VWS V14.01,2013-01-09 07:25:00,
2013-01-09 02:30:00,30.0,24.3,30.39,SW,225,0.0,0.0,79,0.00,,,0.00,VWS V14.01,2013-01-09 07:30:00,
2013-01-09 02:36:00,29.8,23.8,30.39,SW,225,0.0,0.0,78,0.00,,,0.00,VWS V14.01,2013-01-09 07:36:00,
2013-01-09 02:41:00,29.3,23.3,30.39,SW,225,0.0,0.0,78,0.00,,,0.00,VWS V14.01,2013-01-09 07:41:00,
2013-01-09 02:46:00,28.9,23.0,30.39,SW,225,0.0,0.0,78,0.00,,,0.00,VWS V14.01,2013-01-09 07:46:00,
2013-01-09 02:51:00,28.8,22.8,30.39,SW,225,0.0,0.0,78,0.00,,,0.00,VWS V14.01,2013-01-09 07:51:00,
2013-01-09 02:56:00,28.2,22.2,30.39,SW,225,0.0,0.0,78,0.00,,,0.00,VWS V14.01,2013-01-09 07:56:00,
2013-01-09 03:01:00,28.2,22.2,30.36,SW,225,0.0,0.0,78,0.00,,,0.00,VWS V14.01,2013-01-09 08:01:00,
2013-01-09 03:06:00,28.0,22.4,30.36,SW,225,0.0,0.0,79,0.00,,,0.00,VWS V14.01,2013-01-09 08:06:00,
2013-01-09 03:11:00,27.9,22.2,30.36,SW,225,0.0,0.0,79,0.00,,,0.00,VWS V14.01,2013-01-09 08:11:00,
2013-01-09 03:16:00,27.9,22.2,30.39,SW,225,0.0,0.0,79,0.00,,,0.00,VWS V14.01,2013-01-09 08:16:00,
2013-01-09 03:21:00,27.7,22.3,30.39,SW,225,0.0,0.0,80,0.00,,,0.00,VWS V14.01,2013-01-09 08:21:00,
2013-01-09 03:26:00,27.5,22.1,30.39,SW,225,0.0,0.0,80,0.00,,,0.00,VWS V14.01,2013-01-09 08:26:00,
2013-01-09 03:31:00,27.3,22.0,30.39,SW,225,0.0,0.0,80,0.00,,,0.00,VWS V14.01,2013-01-09 08:31:00,
2013-01-09 03:36:00,27.5,22.1,30.39,SW,225,0.0,0.0,80,0.00,,,0.00,VWS V14.01,2013-01-09 08:36:00,
2013-01-09 03:42:00,27.5,22.5,30.39,SW,225,0.0,0.0,81,0.00,,,0.00,VWS V14.01,2013-01-09 08:42:00,
2013-01-09 03:47:00,27.5,22.7,30.39,SW,225,0.0,0.0,82,0.00,,,0.00,VWS V14.01,2013-01-09 08:47:00,
2013-01-09 03:52:00,27.9,23.4,30.39,WSW,248,0.0,0.0,83,0.00,,,0.00,VWS V14.01,2013-01-09 08:52:00,
2013-01-09 03:57:00,27.9,24.0,30.39,WSW,248,0.0,0.0,85,0.00,,,0.00,VWS V14.01,2013-01-09 08:57:00,
2013-01-09 04:02:00,28.0,24.1,30.39,WSW,248,0.0,0.0,85,0.00,,,0.00,VWS V14.01,2013-01-09 09:02:00,
2013-01-09 04:07:00,28.0,24.1,30.39,WSW,248,0.0,0.0,85,0.00,,,0.00,VWS V14.01,2013-01-09 09:07:00,
2013-01-09 04:12:00,28.0,24.1,30.39,WSW,248,0.0,0.0,85,0.00,,,0.00,VWS V14.01,2013-01-09 09:12:00,
2013-01-09 04:17:00,28.0,24.1,30.39,WSW,248,0.0,0.0,85,0.00,,,0.00,VWS V14.01,2013-01-09 09:17:00,
2013-01-09 04:22:00,27.7,23.8,30.39,WSW,248,0.0,0.0,85,0.00,,,0.00,VWS V14.01,2013-01-09 09:22:00,
2013-01-09 04:27:00,27.5,23.3,30.39,WSW,248,0.0,0.0,84,0.00,,,0.00,VWS V14.01,2013-01-09 09:27:00,
2013-01-09 04:32:00,27.5,23.3,30.39,WSW,248,0.0,0.0,84,0.00,,,0.00,VWS V14.01,2013-01-09 09:32:00,
2013-01-09 04:37:00,27.3,23.1,30.39,WSW,248,0.0,0.0,84,0.00,,,0.00,VWS V14.01,2013-01-09 09:37:00,
2013-01-09 04:42:00,27.0,22.5,30.39,WSW,248,0.0,0.0,83,0.00,,,0.00,VWS V14.01,2013-01-09 09:42:00,
2013-01-09 04:47:00,26.8,22.3,30.39,WSW,248,0.0,0.0,83,0.00,,,0.00,VWS V14.01,2013-01-09 09:47:00,
2013-01-09 04:53:00,26.6,22.4,30.39,WSW,248,0.0,0.0,84,0.00,,,0.00,VWS V14.01,2013-01-09 09:53:00,
2013-01-09 04:58:00,26.4,22.2,30.39,WSW,248,0.0,0.0,84,0.00,,,0.00,VWS V14.01,2013-01-09 09:58:00,
2013-01-09 05:03:00,26.6,22.7,30.41,WSW,248,0.0,0.0,85,0.00,,,0.00,VWS V14.01,2013-01-09 10:03:00,
2013-01-09 05:08:00,26.8,22.9,30.41,WSW,248,0.0,0.0,85,0.00,,,0.00,VWS V14.01,2013-01-09 10:08:00,
2013-01-09 05:13:00,26.8,22.9,30.41,WSW,248,0.0,0.0,85,0.00,,,0.00,VWS V14.01,2013-01-09 10:13:00,
2013-01-09 05:18:00,27.0,23.1,30.39,WSW,248,0.0,0.0,85,0.00,,,0.00,VWS V14.01,2013-01-09 10:18:00,
2013-01-09 05:23:00,27.1,23.2,30.39,WSW,248,0.0,0.0,85,0.00,,,0.00,VWS V14.01,2013-01-09 10:23:00,
2013-01-09 05:28:00,27.3,23.4,30.39,West,270,0.0,0.0,85,0.00,,,0.00,VWS V14.01,2013-01-09 10:28:00,
2013-01-09 05:33:00,27.5,23.9,30.39,West,270,0.0,0.0,86,0.00,,,0.00,VWS V14.01,2013-01-09 10:33:00,
2013-01-09 05:38:00,27.5,23.9,30.39,West,270,0.0,0.0,86,0.00,,,0.00,VWS V14.01,2013-01-09 10:38:00,
2013-01-09 05:43:00,27.3,23.7,30.39,West,270,0.0,0.0,86,0.00,,,0.00,VWS V14.01,2013-01-09 10:43:00,
2013-01-09 05:48:00,27.1,23.5,30.39,West,270,0.0,0.0,86,0.00,,,0.00,VWS V14.01,2013-01-09 10:48:00,
2013-01-09 05:53:00,27.0,23.3,30.39,NE,45,0.0,0.0,86,0.00,,,0.00,VWS V14.01,2013-01-09 10:53:00,
2013-01-09 05:58:00,26.4,22.5,30.39,NE,45,0.0,0.0,85,0.00,,,0.00,VWS V14.01,2013-01-09 10:58:00,
2013-01-09 06:03:00,26.1,22.2,30.39,NE,45,0.0,0.0,85,0.00,,,0.00,VWS V14.01,2013-01-09 11:03:00,
2013-01-09 06:08:00,25.5,21.4,30.39,NE,45,0.0,0.0,84,0.00,,,0.00,VWS V14.01,2013-01-09 11:08:00,
2013-01-09 06:13:00,25.3,20.9,30.39,NNE,22,0.0,0.0,83,0.00,,,0.00,VWS V14.01,2013-01-09 11:13:00,
2013-01-09 06:18:00,25.2,21.0,30.39,North,0,0.0,0.0,84,0.00,,,0.00,VWS V14.01,2013-01-09 11:18:00,
2013-01-09 06:24:00,25.3,21.5,30.39,NW,315,0.0,0.0,85,0.00,,,0.00,VWS V14.01,2013-01-09 11:24:00,
2013-01-09 06:29:00,25.9,22.3,30.36,WNW,292,0.0,0.0,86,0.00,,,0.00,VWS V14.01,2013-01-09 11:29:00,
2013-01-09 06:34:00,26.1,22.5,30.36,WNW,292,0.0,0.0,86,0.00,,,0.00,VWS V14.01,2013-01-09 11:34:00,
2013-01-09 06:39:00,25.7,22.1,30.36,WNW,292,0.0,0.0,86,0.00,,,0.00,VWS V14.01,2013-01-09 11:39:00,
2013-01-09 06:44:00,25.5,21.9,30.36,WNW,292,0.0,0.0,86,0.00,,,0.00,VWS V14.01,2013-01-09 11:44:00,
2013-01-09 06:49:00,25.7,22.4,30.36,WNW,292,0.0,0.0,87,0.00,,,0.00,VWS V14.01,2013-01-09 11:49:00,
2013-01-09 06:54:00,25.7,22.4,30.36,WNW,292,0.0,0.0,87,0.00,,,0.00,VWS V14.01,2013-01-09 11:54:00,
2013-01-09 06:59:00,25.7,22.4,30.36,WNW,292,0.0,0.0,87,0.00,,,0.00,VWS V14.01,2013-01-09 11:59:00,
2013-01-09 07:04:00,26.1,22.7,30.36,WNW,292,0.0,0.0,87,0.00,,,0.00,VWS V14.01,2013-01-09 12:04:00,
2013-01-09 07:09:00,26.4,23.4,30.36,WNW,292,0.0,0.0,88,0.00,,,0.00,VWS V14.01,2013-01-09 12:09:00,
2013-01-09 07:14:00,26.6,23.5,30.36,WNW,292,0.0,0.0,88,0.00,,,0.00,VWS V14.01,2013-01-09 12:14:00,
2013-01-09 07:19:00,26.6,23.8,30.36,WNW,292,0.0,0.0,89,0.00,,,0.00,VWS V14.01,2013-01-09 12:19:00,
2013-01-09 07:24:00,26.4,23.4,30.36,WNW,292,0.0,0.0,88,0.00,,,0.00,VWS V14.01,2013-01-09 12:24:00,
2013-01-09 07:29:00,26.4,23.4,30.39,WNW,292,0.0,0.0,88,0.00,,,0.00,VWS V14.01,2013-01-09 12:29:00,
2013-01-09 07:34:00,26.8,23.7,30.39,WNW,292,0.0,0.0,88,0.00,,,0.00,VWS V14.01,2013-01-09 12:34:00,
2013-01-09 07:39:00,27.1,24.1,30.39,WNW,292,0.0,0.0,88,0.00,,,0.00,VWS V14.01,2013-01-09 12:39:00,
2013-01-09 07:44:00,27.5,24.7,30.36,WNW,292,0.0,0.0,89,0.00,,,0.00,VWS V14.01,2013-01-09 12:44:00,
2013-01-09 07:49:00,27.9,25.0,30.36,WNW,292,0.0,0.0,89,0.00,,,0.00,VWS V14.01,2013-01-09 12:49:00,
2013-01-09 07:54:00,28.2,25.4,30.36,WNW,292,0.0,0.0,89,0.00,,,0.00,VWS V14.01,2013-01-09 12:54:00,
2013-01-09 07:59:00,28.4,25.6,30.39,SSW,202,0.0,0.0,89,0.00,,,0.00,VWS V14.01,2013-01-09 12:59:00,
2013-01-09 08:04:00,28.6,25.5,30.39,SW,225,0.0,0.0,88,0.00,,,0.00,VWS V14.01,2013-01-09 13:04:00,
2013-01-09 08:09:00,28.9,25.8,30.39,SW,225,0.0,0.0,88,0.00,,,0.00,VWS V14.01,2013-01-09 13:09:00,
2013-01-09 08:14:00,29.5,26.4,30.36,SW,225,0.0,0.0,88,0.00,,,0.00,VWS V14.01,2013-01-09 13:14:00,
2013-01-09 08:19:00,30.2,27.1,30.36,SW,225,0.0,0.0,88,0.00,,,0.00,VWS V14.01,2013-01-09 13:19:00,
2013-01-09 13:46:00,38.5,25.4,30.21,SSW,202,3.1,3.1,59,0.00,,,0.00,VWS V14.01,2013-01-09 18:46:00,
2013-01-09 13:49:00,38.5,25.8,30.21,SSW,202,2.7,6.3,60,0.00,,,0.00,VWS V14.01,2013-01-09 18:49:00,
2013-01-09 14:46:00,38.3,27.2,30.15,SSW,202,2.7,3.1,64,0.00,,,0.00,VWS V14.01,2013-01-09 19:46:00,
2013-01-09 15:10:00,38.1,27.4,30.12,North,0,0.0,0.0,65,0.00,,,0.00,VWS V14.01,2013-01-09 20:10:00,
2013-01-09 15:11:00,38.1,27.4,30.12,North,0,0.0,0.0,65,0.00,,,0.00,VWS V14.01,2013-01-09 20:11:00,
2013-01-09 15:50:00,38.1,28.9,30.12,WSW,248,0.0,0.0,69,0.00,,,0.00,VWS V14.01,2013-01-09 20:50:00,
2013-01-09 15:52:00,38.1,28.9,30.12,SW,225,0.0,0.0,69,0.00,,,0.00,VWS V14.01,2013-01-09 20:52:00,
2013-01-09 15:58:00,38.5,29.9,30.12,SW,225,2.7,3.1,71,0.00,,,0.00,VWS V14.01,2013-01-09 20:58:00,
2013-01-09 16:11:00,38.8,30.6,30.09,SW,225,7.6,7.6,72,0.00,,,0.00,VWS V14.01,2013-01-09 21:11:00,
2013-01-09 16:39:00,39.6,31.6,30.12,SW,225,8.5,12.5,73,0.00,,,0.00,VWS V14.01,2013-01-09 21:39:00,
2013-01-09 16:51:00,39.4,31.1,30.12,SW,225,6.3,6.3,72,0.00,,,0.00,VWS V14.01,2013-01-09 21:51:00,
2013-01-09 18:05:00,39.4,31.8,30.09,SW,225,5.8,5.8,74,0.00,,,0.00,VWS V14.01,2013-01-09 23:05:00,
2013-01-09 18:10:00,39.2,31.6,30.09,SW,225,8.1,9.8,74,0.00,,BKN045,0.00,VWS V14.01,2013-01-09 23:10:00,
2013-01-09 18:19:00,39.2,32.0,30.09,SW,225,5.4,7.6,75,0.00,,BKN045,0.00,VWS V14.01,2013-01-09 23:19:00,
2013-01-09 18:24:00,39.0,32.1,30.09,SW,225,7.6,7.6,76,0.00,,BKN045,0.00,VWS V14.01,2013-01-09 23:24:00,
2013-01-09 18:29:00,38.8,31.9,30.12,SW,225,7.2,8.1,76,0.00,,BKN045,0.00,VWS V14.01,2013-01-09 23:29:00,
2013-01-09 18:34:00,38.8,31.9,30.12,SW,225,6.3,12.5,76,0.00,,BKN045,0.00,VWS V14.01,2013-01-09 23:34:00,
2013-01-09 18:39:00,38.7,32.1,30.12,WSW,248,7.6,9.0,77,0.00,,BKN045,0.00,VWS V14.01,2013-01-09 23:39:00,
2013-01-09 18:44:00,38.7,32.1,30.15,SW,225,7.2,8.1,77,0.00,,CLR,0.00,VWS V14.01,2013-01-09 23:44:00,
2013-01-09 18:49:00,38.5,31.9,30.15,WSW,248,5.4,7.6,77,0.00,,CLR,0.00,VWS V14.01,2013-01-09 23:49:00,
2013-01-09 18:54:00,38.3,31.7,30.15,SW,225,7.6,7.6,77,0.00,,CLR,0.00,VWS V14.01,2013-01-09 23:54:00,
2013-01-09 18:59:00,38.1,31.9,30.18,SW,225,6.7,7.2,78,0.00,,CLR,0.00,VWS V14.01,2013-01-09 23:59:00,
2013-01-09 19:04:00,38.1,31.9,30.18,West,270,8.1,8.1,78,0.00,,CLR,0.00,VWS V14.01,2013-01-10 00:04:00,
2013-01-09 19:09:00,38.1,31.9,30.18,West,270,8.5,8.5,78,0.00,,CLR,0.00,VWS V14.01,2013-01-10 00:09:00,
2013-01-09 19:14:00,37.9,32.0,30.15,SW,225,6.7,8.1,79,0.00,,CLR,0.00,VWS V14.01,2013-01-10 00:14:00,
2013-01-09 19:19:00,38.1,32.2,30.15,SW,225,10.7,10.7,79,0.00,,CLR,0.00,VWS V14.01,2013-01-10 00:19:00,
2013-01-09 19:24:00,38.1,32.5,30.15,SW,225,6.7,8.1,80,0.00,,CLR,0.00,VWS V14.01,2013-01-10 00:24:00,
2013-01-09 19:29:00,38.3,32.7,30.15,SW,225,11.2,11.2,80,0.00,,CLR,0.00,VWS V14.01,2013-01-10 00:29:00,
2013-01-09 19:34:00,38.3,32.7,30.15,SW,225,6.7,8.5,80,0.00,,CLR,0.00,VWS V14.01,2013-01-10 00:34:00,
2013-01-09 19:40:00,38.3,32.7,30.15,SW,225,5.4,6.7,80,0.00,,CLR,0.00,VWS V14.01,2013-01-10 00:40:00,
2013-01-09 19:45:00,38.3,32.7,30.12,SW,225,7.2,7.6,80,0.00,,CLR,0.00,VWS V14.01,2013-01-10 00:45:00,
2013-01-09 19:50:00,38.3,32.7,30.12,SW,225,8.5,11.2,80,0.00,,CLR,0.00,VWS V14.01,2013-01-10 00:50:00,
2013-01-09 19:55:00,38.5,33.2,30.12,SW,225,14.3,14.3,81,0.00,,CLR,0.00,VWS V14.01,2013-01-10 00:55:00,
2013-01-09 20:00:00,38.7,33.0,30.12,SSW,202,10.7,10.7,80,0.00,,CLR,0.00,VWS V14.01,2013-01-10 01:00:00,
2013-01-09 20:05:00,38.8,33.5,30.12,SSW,202,9.8,15.2,81,0.00,,CLR,0.00,VWS V14.01,2013-01-10 01:05:00,
2013-01-09 20:10:00,38.8,33.2,30.12,SW,225,12.1,12.1,80,0.00,,CLR,0.00,VWS V14.01,2013-01-10 01:10:00,
2013-01-09 20:15:00,39.2,33.6,30.12,WSW,248,5.8,9.8,80,0.00,,CLR,0.00,VWS V14.01,2013-01-10 01:15:00,
2013-01-09 20:20:00,39.4,33.1,30.12,SSW,202,7.6,15.7,78,0.00,,CLR,0.00,VWS V14.01,2013-01-10 01:20:00,
2013-01-09 20:25:00,39.2,32.9,30.12,SSW,202,8.1,9.4,78,0.00,,CLR,0.00,VWS V14.01,2013-01-10 01:25:00,
2013-01-09 20:30:00,39.4,33.1,30.12,SSW,202,12.5,12.5,78,0.00,,CLR,0.00,VWS V14.01,2013-01-10 01:30:00,
2013-01-09 20:35:00,39.4,33.1,30.12,SW,225,7.2,8.5,78,0.00,,CLR,0.00,VWS V14.01,2013-01-10 01:35:00,
2013-01-09 20:40:00,39.4,33.1,30.12,SW,225,6.3,12.1,78,0.00,,CLR,0.00,VWS V14.01,2013-01-10 01:40:00,
2013-01-09 20:45:00,39.4,32.8,30.12,WSW,248,8.1,13.0,77,0.00,,CLR,0.00,VWS V14.01,2013-01-10 01:45:00,
2013-01-09 20:50:00,39.6,33.0,30.12,SW,225,9.4,9.4,77,0.00,,CLR,0.00,VWS V14.01,2013-01-10 01:50:00,
2013-01-09 20:55:00,39.9,33.3,30.12,WSW,248,9.8,9.8,77,0.00,,CLR,0.00,VWS V14.01,2013-01-10 01:55:00,
2013-01-09 21:00:00,39.7,32.8,30.12,SW,225,7.2,11.2,76,0.00,,CLR,0.00,VWS V14.01,2013-01-10 02:00:00,
2013-01-09 21:05:00,39.7,32.8,30.12,West,270,8.1,9.8,76,0.00,,CLR,0.00,VWS V14.01,2013-01-10 02:05:00,
2013-01-09 21:10:00,39.7,32.8,30.12,West,270,8.1,8.5,76,0.00,,CLR,0.00,VWS V14.01,2013-01-10 02:10:00,
2013-01-09 21:15:00,39.7,32.5,30.12,WSW,248,8.1,8.1,75,0.00,,CLR,0.00,VWS V14.01,2013-01-10 02:15:00,
2013-01-09 21:20:00,39.7,32.8,30.12,SW,225,7.6,7.6,76,0.00,,CLR,0.00,VWS V14.01,2013-01-10 02:20:00,
2013-01-09 21:25:00,39.7,32.5,30.12,WSW,248,6.3,6.3,75,0.00,,CLR,0.00,VWS V14.01,2013-01-10 02:25:00,
2013-01-09 21:30:00,39.6,32.3,30.15,WSW,248,7.6,7.6,75,0.00,,CLR,0.00,VWS V14.01,2013-01-10 02:30:00,
2013-01-09 21:36:00,39.2,32.0,30.15,WSW,248,3.1,5.8,75,0.00,,CLR,0.00,VWS V14.01,2013-01-10 02:36:00,
2013-01-09 21:41:00,39.2,32.3,30.15,WSW,248,4.9,6.7,76,0.00,,CLR,0.00,VWS V14.01,2013-01-10 02:41:00,
2013-01-09 21:46:00,39.2,32.3,30.15,West,270,3.1,5.4,76,0.00,,CLR,0.00,VWS V14.01,2013-01-10 02:46:00,
2013-01-09 21:51:00,38.8,31.9,30.15,West,270,2.7,4.0,76,0.00,,CLR,0.00,VWS V14.01,2013-01-10 02:51:00,
2013-01-09 21:56:00,38.7,31.8,30.15,WSW,248,4.0,4.9,76,0.00,,CLR,0.00,VWS V14.01,2013-01-10 02:56:00,
2013-01-09 22:01:00,38.7,31.8,30.12,SSW,202,0.0,3.1,76,0.00,,CLR,0.00,VWS V14.01,2013-01-10 03:01:00,
2013-01-09 22:06:00,38.5,31.6,30.12,NW,315,2.2,4.9,76,0.00,,CLR,0.00,VWS V14.01,2013-01-10 03:06:00,
2013-01-09 22:11:00,38.5,31.6,30.12,SW,225,4.0,5.8,76,0.00,,CLR,0.00,VWS V14.01,2013-01-10 03:11:00,
2013-01-09 22:16:00,37.9,31.1,30.15,WSW,248,4.9,4.9,76,0.00,,CLR,0.00,VWS V14.01,2013-01-10 03:16:00,
2013-01-09 22:21:00,37.8,30.9,30.15,WSW,248,5.8,5.8,76,0.00,,CLR,0.00,VWS V14.01,2013-01-10 03:21:00,
2013-01-09 22:26:00,37.6,31.0,30.15,WNW,292,5.4,5.4,77,0.00,,CLR,0.00,VWS V14.01,2013-01-10 03:26:00,
2013-01-09 22:31:00,37.6,31.4,30.15,West,270,2.2,2.2,78,0.00,,CLR,0.00,VWS V14.01,2013-01-10 03:31:00,
2013-01-09 22:37:00,37.4,31.2,30.15,West,270,4.0,4.0,78,0.00,,CLR,0.00,VWS V14.01,2013-01-10 03:37:00,
2013-01-09 22:42:00,37.4,31.2,30.15,WSW,248,4.9,4.9,78,0.00,,CLR,0.00,VWS V14.01,2013-01-10 03:42:00,
2013-01-09 22:47:00,37.0,30.8,30.15,WSW,248,2.2,2.2,78,0.00,,CLR,0.00,VWS V14.01,2013-01-10 03:47:00,
2013-01-09 22:52:00,37.0,30.8,30.15,WNW,292,2.7,4.0,78,0.00,,CLR,0.00,VWS V14.01,2013-01-10 03:52:00,
2013-01-09 22:57:00,36.9,30.6,30.15,WSW,248,2.7,2.7,78,0.00,,CLR,0.00,VWS V14.01,2013-01-10 03:57:00,
2013-01-09 23:02:00,36.9,30.6,30.18,SW,225,4.0,4.5,78,0.00,,CLR,0.00,VWS V14.01,2013-01-10 04:02:00,
2013-01-09 23:07:00,36.9,30.6,30.18,West,270,0.0,0.0,78,0.00,,CLR,0.00,VWS V14.01,2013-01-10 04:07:00,
2013-01-09 23:12:00,36.5,30.3,30.18,West,270,0.0,0.0,78,0.00,,CLR,0.00,VWS V14.01,2013-01-10 04:12:00,
2013-01-09 23:17:00,36.3,30.1,30.18,North,0,0.0,0.0,78,0.00,,CLR,0.00,VWS V14.01,2013-01-10 04:17:00,
2013-01-09 23:22:00,36.0,29.8,30.18,SSW,202,0.0,0.0,78,0.00,,CLR,0.00,VWS V14.01,2013-01-10 04:22:00,
2013-01-09 23:27:00,35.2,29.1,30.18,SW,225,0.0,0.0,78,0.00,,CLR,0.00,VWS V14.01,2013-01-10 04:27:00,
2013-01-09 23:32:00,34.7,28.5,30.18,North,0,0.0,0.0,78,0.00,,CLR,0.00,VWS V14.01,2013-01-10 04:32:00,
2013-01-09 23:37:00,34.3,28.2,30.18,SSW,202,0.0,0.0,78,0.00,,CLR,0.00,VWS V14.01,2013-01-10 04:37:00,
2013-01-09 23:43:00,34.3,28.5,30.18,SW,225,0.0,0.0,79,0.00,,CLR,0.00,VWS V14.01,2013-01-10 04:43:00,
2013-01-09 23:48:00,34.0,28.2,30.21,South,180,0.0,0.0,79,0.00,,CLR,0.00,VWS V14.01,2013-01-10 04:48:00,
2013-01-09 23:53:00,34.0,28.5,30.21,SW,225,0.0,2.2,80,0.00,,CLR,0.00,VWS V14.01,2013-01-10 04:53:00,
2013-01-09 23:58:00,34.9,30.5,30.21,SW,225,7.2,7.2,84,0.00,,CLR,0.00,VWS V14.01,2013-01-10 04:58:00,